This is the latest recevied weather packets stored in our database for station/object 9D9-WX. If no packets are shown the sender has not sent any weather packets the latest 10 day(s).
| Time | Temp. | Humidity | Pressure | Rain* | Wind** | Luminosity | Snow |
|---|---|---|---|---|---|---|---|
| 1777719631 | -0.56° C | 83% | 989.6 hPa | 0 mm | - | - | - |
| 1777718709 | -0.56° C | 82% | 989.4 hPa | 0 mm | - | - | - |
| 1777717826 | -0.56° C | 87% | 989.7 hPa | 0 mm | - | - | - |
| 1777716910 | -0.56° C | 87% | 989.7 hPa | 0 mm | - | - | - |
| 1777716032 | -0.56° C | 87% | 989.7 hPa | 0 mm | - | - | - |
| 1777715109 | -0.56° C | 85% | 988.8 hPa | 0 mm | - | - | - |
| 1777713309 | -0.56° C | 88% | 989.2 hPa | 0 mm | - | - | - |
| 1777712430 | -0.56° C | 88% | 989.2 hPa | 0 mm | - | - | - |
| 1777711508 | -0.56° C | 81% | 988.8 hPa | 0 mm | - | - | - |
| 1777710627 | -0.56° C | 79% | 989 hPa | 0 mm | - | - | - |
| 1777709710 | -0.56° C | 79% | 989 hPa | 0 mm | - | - | - |
| 1777708832 | 0° C | 79% | 989 hPa | 0 mm | - | - | - |
| 1777707909 | 0° C | 80% | 988.4 hPa | 0 mm | - | - | - |
| 1777707021 | 0° C | 80% | 988.4 hPa | 0 mm | - | - | - |
| 1777706109 | 0° C | 80% | 988.3 hPa | 0 mm | - | - | - |
| 1777705227 | 0° C | 80% | 988.3 hPa | 0 mm | - | - | - |
| 1777704310 | 0° C | 77% | 989.5 hPa | 0 mm | - | - | - |
| 1777703428 | 0° C | 78% | 989.4 hPa | 0 mm | - | - | - |
| 1777702510 | 0° C | 78% | 989.4 hPa | 0 mm | - | - | - |
| 1777701633 | 0.56° C | 78% | 989.4 hPa | 0 mm | - | - | - |
| 1777700710 | 0.56° C | 74% | 988.5 hPa | 0 mm | - | - | - |
| 1777699827 | 0.56° C | 77% | 988.9 hPa | 0 mm | - | - | - |
| 1777698909 | 0.56° C | 77% | 988.9 hPa | 0 mm | - | - | - |
| 1777698031 | 0.56° C | 77% | 988.9 hPa | 0 mm | - | - | - |
| 1777697110 | 1.11° C | 70% | 988.5 hPa | 0 mm | - | - | - |
* Rain latest hour (hover to see other rain measurements)
** Current wind speed in m/s (hover to see current wind gust speed)